Home   Weather   Wipperfürth   Past weeks

Flag for Germany Past Weather in Wipperfürth, North Rhine-Westphalia, Germany — Yesterday and Last 2 Weeks

Now
57 °F

Sunny.


Feels Like: 55 °F
Forecast: 52 / 58 °F
Wind: 12 mph from Southeast

Location: Koeln / Bonn

Current Time: Sep 29, 2016 at 8:54:20 AM

Latest Report: Sep 29, 2016 at 8:20 AM


Visibility: 10 mi

Pressure: 30.12 "Hg

Humidity: 88%

Dew Point: 54 °F

Location of WipperfürthLocation

Past Weather in Wipperfürth — Graph

°F

Wipperfürth Temperature Yesterday

Maximum temperature yesterday: 75 °F (at 4:50 PM)
Minimum temperature yesterday: 54 °F (at 2:20 AM)
Average temperature yesterday: 63 °F

High & Low Weather Summary for the Past Weeks

 TemperatureHumidityPressure
High90 °F (Sep 14, 4:20 PM)100% (Sep 17, 2:20 AM)30.33 "Hg (Sep 17, 2:20 AM)
Low43 °F (Sep 22, 2:50 AM)29% (Sep 14, 4:20 PM)29.80 "Hg (Sep 15, 12:50 PM)
Average62 °F72%30.10 "Hg
* Reported Sep 14 7:20 AM — Sep 29 7:50 AM, Wipperfürth, Weather by CustomWeather, © 2016

Note: Actual official high and low records may vary slightly from our data, if they occured in-between our weather recording intervals... More about our weather records

Advertising

Wipperfürth Weather History for the Previous 24 Hours

Scroll right to see more
 ConditionsComfort  
Time TempWeatherWind HumidityBarometerVisibility
7:50 AM
Thu, Sep 29
57 °FSunny.12 mph88%30.12 "Hg10 mi
7:20 AM55 °FClear.12 mph94%30.12 "Hg10 mi
6:50 AM57 °FClear.10 mph88%30.15 "Hg10 mi
6:20 AM57 °FClear.9 mph88%30.15 "Hg10 mi
5:50 AM59 °FClear.9 mph82%30.15 "Hg10 mi
5:20 AM57 °FClear.9 mph88%30.15 "Hg10 mi
4:50 AM59 °FClear.9 mph82%30.18 "Hg10 mi
4:20 AM59 °FClear.8 mph82%30.18 "Hg10 mi
3:50 AM57 °FClear.9 mph88%30.21 "Hg10 mi
3:20 AM59 °FClear.10 mph82%30.21 "Hg10 mi
2:50 AM61 °FClear.8 mph83%30.21 "Hg10 mi
2:20 AM61 °FClear.7 mph83%30.21 "Hg10 mi
1:50 AM61 °FClear.9 mph83%30.21 "Hg10 mi
1:20 AM61 °FClear.9 mph83%30.21 "Hg10 mi
12:50 AM61 °FClear.9 mph77%30.24 "Hg10 mi
12:20 AM61 °FClear.9 mph77%30.24 "Hg10 mi
11:50 PM
Wed, Sep 28
61 °FClear.9 mph83%30.24 "Hg10 mi
11:20 PM61 °FClear.8 mph83%30.24 "Hg10 mi
10:50 PM61 °FClear.8 mph77%30.24 "Hg10 mi
10:20 PM61 °FPassing clouds.8 mph77%30.24 "HgN/A
9:50 PM61 °FClear.8 mph77%30.27 "Hg10 mi
9:20 PM63 °FClear.7 mph73%30.27 "Hg10 mi
8:50 PM63 °FClear.8 mph73%30.27 "Hg10 mi
8:20 PM63 °FPassing clouds.6 mph68%30.27 "HgN/A
7:50 PM64 °FPassing clouds.3 mph64%30.27 "HgN/A
7:20 PM68 °FClear.5 mph56%30.27 "Hg10 mi
6:50 PM70 °FSunny.7 mph53%30.24 "Hg10 mi
6:20 PM70 °FSunny.9 mph53%30.24 "Hg10 mi
5:50 PM73 °FPassing clouds.9 mph44%30.24 "HgN/A
5:20 PM73 °FPassing clouds.10 mph47%30.24 "HgN/A
4:50 PM75 °FPassing clouds.8 mph47%30.24 "HgN/A
4:20 PM72 °FPartly sunny.12 mph50%30.24 "HgN/A
3:50 PM72 °FPartly sunny.12 mph53%30.27 "HgN/A
3:20 PM73 °FPartly sunny.16 mph50%30.27 "HgN/A
2:50 PM72 °FPartly sunny.14 mph50%30.27 "HgN/A
2:20 PM72 °FPartly sunny.14 mph53%30.27 "HgN/A
1:50 PM70 °FPartly sunny.16 mph60%30.27 "HgN/A
1:20 PM70 °FPartly sunny.15 mph64%30.30 "HgN/A
12:50 PM68 °FPartly sunny.8 mph64%30.30 "HgN/A
12:20 PM66 °FPartly sunny.5 mph64%30.30 "HgN/A
11:50 AM66 °FPartly sunny.8 mph60%30.30 "HgN/A
11:20 AM66 °FBroken clouds.9 mph56%30.30 "HgN/A
10:50 AM64 °FPartly sunny.6 mph60%30.30 "HgN/A
10:20 AM63 °FBroken clouds.6 mph64%30.30 "HgN/A
9:50 AM61 °FPartly sunny.6 mph63%30.30 "HgN/A
9:20 AM59 °FBroken clouds.8 mph68%30.30 "HgN/A
8:50 AM59 °FBroken clouds.6 mph63%30.30 "HgN/A
8:20 AM55 °FSunny.8 mph72%30.30 "Hg10 mi
Weather by CustomWeather, © 2016

See weather overviewHow to use our weather pages